Location: *
(1.3500°S, 147.5000°W)
Time: 18:29:51
(UTC+00:00)

STARLINK-1092 - Pass Details

Date: 07 April 2020
Orbit: 548 x 551 km, 53.0° (Epoch: 28 May)

Event Time Altitude Azimuth Distance (km) Brightness Sun altitude
Rises 04:40:07 0° 318° (NW) 2,702 8.0 -12.1°
Reaches altitude 10° 04:42:23 10° 313° (NW) 1,812 7.1 -12.6°
Maximum altitude 04:46:23 52° 236° (SW) 684 4.4 -13.6°
Drops below altitude 10° 04:50:25 10° 159° (SSE) 1,818 6.0 -14.6°
Enters shadow 04:51:12 - 157° (SSE) 2,121 6.3 -14.8°
